Regional Weather Roundup
Issued by NWS Charleston, SC

Current Version | Previous Version | Graphics & Text | Print | Product List | Glossary On
Versions: 1 2 3 4 5 6 7 8 9 10 11 12 13 14 15 16 17 18 19 20 21 22 23 24 25 26 27 28 29 30 31 32 33 34 35 36 37 38 39 40 41 42 43 44 45 46 47 48 49 50
000
ASUS42 KCHS 110210
RWRCHS
REGIONAL WEATHER ROUNDUP
NATIONAL WEATHER SERVICE CHARLESTON SC
1000 PM EDT THU JUL 10 2014

NOTE: "FAIR" INDICATES FEW OR NO CLOUDS BELOW 12,000 FEET WITH NO
SIGNIFICANT WEATHER AND/OR OBSTRUCTIONS TO VISIBILITY.

NOT ALL STATIONS ARE QUALITY CONTROLLED BY THE NATIONAL
WEATHER SERVICE. USE DATA WITH CAUTION...ESPECIALLY
DEWPOINT OBSERVATIONS.

SCZ027-030-031-034>040-042>050-110300-
...SOUTH CAROLINA...

CITY           SKY/WX    TMP DP  RH WIND       PRES   REMARKS
N CHARLESTON   CLOUDY    82  74  76 SW9       30.09R
WATERFRONT PRK   N/A     84 N/A N/A S14G21      N/A
FORT JOHNSON   NOT AVBL
MOUNT PLEASANT FAIR      82  75  78 S16       30.09R
JOHNS ISLAND   CLEAR     82  70  65 SW14      30.09R
PINOPOLIS        N/A     82  75  78 S6        29.98R
MONCKS CORNER    N/A     81  77  89 S7        30.08R
SUMMERVILLE    FAIR      79  77  94 CALM      30.09R
BEAUFORT MCAS  CLOUDY    78  67  68 W12       30.11R
BEAUFORT ARPT  FAIR      79  70  73 SW7       30.10R
HILTON HEAD IS CLOUDY    79  72  78 S3        30.12R
GEORGETOWN     NOT AVBL
WALTERBORO     CLOUDY    79  68  69 SW8       30.10R
ORANGEBURG     CLOUDY    78  69  73 SW12      30.07F
BARNWELL       DRIZZLE   73  70  88 W5        30.08F
AIKEN          FAIR      81  72  74 S8        30.11R
MANNING        MOCLDY    79 N/A N/A S6        30.08R
KINGSTREE      NOT AVBL
COLUMBIA       CLOUDY    85  69  58 N7        30.06R
SUMTER         CLOUDY    73  72  94 SE12      30.08R THUNDER
FLORENCE       CLOUDY    74  71  91 SE10      30.09R
MYRTLE BEACH   MOCLDY    82  75  78 SW12      30.10R
N MYRTLE BEACH CLOUDY    82  76  81 SW16      30.10R

$$

GAZ063-065-086>088-099>101-113>116-118-119-134-136>141-150-110300-
...GEORGIA...

CITY           SKY/WX    TMP DP  RH WIND       PRES   REMARKS
SAVANNAH ARPT  LGT RAIN  74  71  91 CALM      30.12R
HUNTER AAF     LGT RAIN  73  72  96 SW6       30.10R
FORT STEWART   CLOUDY    74  72  92 S6        30.12R
STATESBORO     NOT AVBL
SYLVANIA       RAIN      74  74  98 CALM      30.10S
CLAXTON        LGT RAIN  73  73 100 CALM      30.10S
THOMSON        MOCLDY    77  77 100 CALM      30.13R
AUGUSTA-BUSH   CLOUDY    80  69  69 S17G25    30.09R
AUGUSTA-DANIEL MOCLDY    84  72  67 S7        30.10R
SWAINSBORO     FAIR      77  77 100 S3        30.10S
VIDALIA        RAIN      75  72  88 SW5       30.10S
ALMA           CLOUDY    73  71  93 CALM      30.10S
WAYCROSS       CLOUDY    81  76  83 SW3       30.10F
JESUP          NOT AVBL
BRUNSWICK      CLOUDY    79  72  78 CALM      30.12R
SAINT SIMONS   CLOUDY    77  74  90 S5        30.11S

$$

SCZ027-028-034-036>038-045-046-048>050-GAZ119-141-110300-
...LAKE AND SUPPLEMENTAL COASTAL OBSERVATIONS...

STATION/POSITION TIME  TEMP    WIND        PRES    WAVE   SWELL
                       AIR SEA DIR/SP/G            HT/PER HT/PER/DIR
                 (UTC) (F)     (DEG/KT/KT) (MB)    (FT/S) (FT/S/D)
UPR LAKE MARION  NOT AVBL
WINYAH BAY       0100   82     190/ 14     1018.0S
LAKE MURRAY      0100   79     340/  2/  5 1017.3R
ACE BASIN NERRS  0100   83     240/  2     1018.0S
FORT PULASKI     0200   77 79  220/  3/  5   N/A
SAPELO ISLAND    0100   78     190/  8     1020.0S

$$

ANZ835-935-AMZ111-154-330-350-352-354-374-450-454-472-110300-
...C-MAN AND BUOY OBSERVATIONS...

STATION/POSITION TIME  TEMP    WIND        PRES    WAVE   SWELL
                       AIR SEA DIR/SP/G            HT/PER HT/PER/DIR
                 (UTC) (F)     (DEG/KT/KT) (MB)    (FT/S) (FT/S/D)
FOLLY BEACH CMAN 0100   83     200/ 18/ 21 1018.8R
BUOY 41004       0200   82 82  200/ 16/ 19 1018.4R   4/ 5   2/ 8
BUOY 41008       0200   82 84  210/ 12/ 14 1019.4R   2/ 4   2/120/ 9
5E ST. MARYS GA  0200      83                N/A     2/11
FRYING PAN BUOY  NOT AVBL
BUOY 41025       0200          VRB 17/ 21  1019.5S   4/ 5   2/190/ 9
CAPE LOOKOUT NC  0100   81     190/ 13/ 18 1019.3R
BUOY 41002       0111   81 81  190/ 12/ 14 1023.0R   3/ 9   2/110/ 9
BUOY 41010       0200   81 83  170/  6/  6 1021.1R   3/ 9   2/100/ 9
BUOY 41012       NOT AVBL
ST AUGUSTINE FL  0200   80      CALM  /  1 1020.2F
CAPERS NEARSHORE 0100   82     220/ 17/ 21   N/A
FRIPP NEARSHORE  0100   82     250/ 14/ 17   N/A


$$



USA.gov is the U.S. government's official web portal to all federal, state and local government web resources and services.